Previsão horária em Alkino

Hoje, 15 Junho, Terça-feira

Tempo Temperatura Precipitação Vento Pressão Humidade
00:00 +21°C° 0 mm 1 m/s 751 mmHg 75%
01:00 +20°C° 0 mm 1 m/s 751 mmHg 75%
02:00 +20°C° 0.2 mm 1 m/s 751 mmHg 78%
03:00 +20°C° 0.2 mm 1 m/s 751 mmHg 81%
04:00 +19°C° 0.2 mm 1 m/s 751 mmHg 84%
05:00 +20°C° 0.1 mm 1 m/s 751 mmHg 84%
06:00 +19°C° 0.1 mm 2 m/s 751 mmHg 84%
07:00 +20°C° 0.1 mm 2 m/s 751 mmHg 85%
08:00 +21°C° 0 mm 2 m/s 751 mmHg 79%
09:00 +24°C° 0 mm 2 m/s 751 mmHg 73%
10:00 +25°C° 0 mm 1 m/s 751 mmHg 67%
11:00 +26°C° 0 mm 2 m/s 751 mmHg 64%
12:00 +27°C° 0 mm 2 m/s 751 mmHg 61%
13:00 +28°C° 0 mm 2 m/s 751 mmHg 59%
14:00 +29°C° 0 mm 2 m/s 750 mmHg 57%
15:00 +29°C° 0 mm 2 m/s 750 mmHg 55%
16:00 +30°C° 0 mm 1 m/s 750 mmHg 53%
17:00 +29°C° 0 mm 1 m/s 750 mmHg 58%
18:00 +28°C° 0 mm 1 m/s 750 mmHg 62%
19:00 +28°C° 0 mm 1 m/s 749 mmHg 67%
20:00 +26°C° 0 mm 1 m/s 749 mmHg 70%
21:00 +24°C° 0 mm 1 m/s 749 mmHg 73%
22:00 +21°C° 0 mm 0 m/s 749 mmHg 76%
23:00 +22°C° 0 mm 1 m/s 749 mmHg 76%

Amanhã, 16 Junho, Quarta-feira

Tempo Temperatura Precipitação Vento Pressão Humidade
00:00 +21°C° 0 mm 1 m/s 749 mmHg 76%
01:00 +21°C° 0 mm 1 m/s 749 mmHg 76%
02:00 +20°C° 0 mm 1 m/s 749 mmHg 76%
03:00 +20°C° 0 mm 1 m/s 749 mmHg 76%
04:00 +19°C° 0 mm 1 m/s 749 mmHg 76%
05:00 +21°C° 0.1 mm 1 m/s 749 mmHg 74%
06:00 +21°C° 0.1 mm 2 m/s 749 mmHg 72%
07:00 +23°C° 0.1 mm 2 m/s 749 mmHg 70%
08:00 +25°C° 0 mm 2 m/s 749 mmHg 65%
09:00 +27°C° 0 mm 3 m/s 749 mmHg 59%
10:00 +28°C° 0 mm 3 m/s 748 mmHg 54%
11:00 +29°C° 0 mm 4 m/s 748 mmHg 52%
12:00 +29°C° 0 mm 4 m/s 748 mmHg 51%
13:00 +30°C° 0 mm 5 m/s 748 mmHg 50%
14:00 +29°C° 0 mm 5 m/s 748 mmHg 53%
15:00 +29°C° 0 mm 5 m/s 747 mmHg 56%
16:00 +29°C° 0 mm 4 m/s 747 mmHg 59%
17:00 +28°C° 0 mm 4 m/s 747 mmHg 61%
18:00 +27°C° 0 mm 3 m/s 746 mmHg 63%
19:00 +26°C° 0 mm 2 m/s 746 mmHg 65%
20:00 +25°C° 0 mm 3 m/s 746 mmHg 66%
21:00 +24°C° 0 mm 3 m/s 745 mmHg 67%
22:00 +22°C° 0 mm 3 m/s 745 mmHg 68%
23:00 +21°C° 0.4 mm 3 m/s 745 mmHg 71%

Depois de amanhã, 17 Junho, Quinta-feira

Tempo Temperatura Precipitação Vento Pressão Humidade
00:00 +20°C° 0.4 mm 3 m/s 744 mmHg 74%
01:00 +19°C° 0.4 mm 3 m/s 743 mmHg 77%
02:00 +19°C° 2.6 mm 2 m/s 744 mmHg 83%
03:00 +18°C° 2.6 mm 2 m/s 744 mmHg 89%
04:00 +19°C° 2.6 mm 1 m/s 744 mmHg 95%
05:00 +19°C° 0.1 mm 2 m/s 744 mmHg 92%
06:00 +20°C° 0.1 mm 2 m/s 744 mmHg 89%
07:00 +21°C° 0.1 mm 3 m/s 744 mmHg 86%
08:00 +22°C° 0.1 mm 3 m/s 744 mmHg 83%
09:00 +23°C° 0.1 mm 4 m/s 744 mmHg 80%
10:00 +23°C° 0.1 mm 5 m/s 744 mmHg 76%
11:00 +23°C° 0.2 mm 5 m/s 744 mmHg 77%
12:00 +22°C° 0.2 mm 6 m/s 745 mmHg 77%
13:00 +21°C° 0.2 mm 6 m/s 745 mmHg 78%
14:00 +21°C° 0 mm 6 m/s 746 mmHg 77%
15:00 +21°C° 0 mm 6 m/s 746 mmHg 77%
16:00 +21°C° 0 mm 6 m/s 746 mmHg 76%
17:00 +20°C° 0 mm 6 m/s 746 mmHg 73%
18:00 +20°C° 0 mm 6 m/s 747 mmHg 71%
19:00 +20°C° 0 mm 6 m/s 747 mmHg 69%
20:00 +17°C° 0 mm 5 m/s 747 mmHg 68%
21:00 +16°C° 0 mm 5 m/s 748 mmHg 67%
22:00 +15°C° 0 mm 5 m/s 748 mmHg 66%
23:00 +14°C° 0 mm 5 m/s 748 mmHg 65%

18 Junho, Sexta-feira

Tempo Temperatura Precipitação Vento Pressão Humidade
00:00 +14°C° 0 mm 5 m/s 748 mmHg 65%
01:00 +13°C° 0 mm 5 m/s 748 mmHg 65%
02:00 +12°C° 0 mm 5 m/s 749 mmHg 67%
03:00 +12°C° 0 mm 5 m/s 749 mmHg 69%
04:00 +11°C° 0 mm 4 m/s 749 mmHg 71%
05:00 +12°C° 0 mm 5 m/s 750 mmHg 70%
06:00 +13°C° 0 mm 5 m/s 750 mmHg 69%
07:00 +13°C° 0 mm 6 m/s 751 mmHg 69%
08:00 +14°C° 0 mm 6 m/s 751 mmHg 63%
09:00 +16°C° 0 mm 7 m/s 751 mmHg 57%
10:00 +17°C° 0 mm 7 m/s 752 mmHg 51%
11:00 +17°C° 0 mm 7 m/s 752 mmHg 49%
12:00 +17°C° 0 mm 8 m/s 753 mmHg 47%
13:00 +18°C° 0 mm 8 m/s 753 mmHg 44%
14:00 +18°C° 0 mm 8 m/s 753 mmHg 45%
15:00 +18°C° 0 mm 7 m/s 753 mmHg 46%
16:00 +18°C° 0 mm 7 m/s 754 mmHg 47%
17:00 +17°C° 0 mm 6 m/s 754 mmHg 51%
18:00 +17°C° 0 mm 6 m/s 754 mmHg 55%
19:00 +16°C° 0 mm 5 m/s 754 mmHg 58%
20:00 +15°C° 0 mm 4 m/s 755 mmHg 62%
21:00 +13°C° 0 mm 3 m/s 755 mmHg 65%
22:00 +12°C° 0 mm 3 m/s 755 mmHg 68%
23:00 +12°C° 0 mm 2 m/s 756 mmHg 67%

19 Junho, Sábado

Tempo Temperatura Precipitação Vento Pressão Humidade
00:00 +12°C° 0 mm 2 m/s 756 mmHg 67%
01:00 +12°C° 0 mm 2 m/s 756 mmHg 66%
02:00 +10°C° 0 mm 2 m/s 756 mmHg 69%
03:00 +10°C° 0 mm 2 m/s 756 mmHg 71%
04:00 +10°C° 0 mm 2 m/s 757 mmHg 74%
05:00 +12°C° 0 mm 2 m/s 757 mmHg 72%
06:00 +13°C° 0 mm 3 m/s 757 mmHg 70%
07:00 +14°C° 0 mm 3 m/s 757 mmHg 68%
08:00 +17°C° 0 mm 4 m/s 757 mmHg 64%
09:00 +19°C° 0 mm 4 m/s 757 mmHg 59%
10:00 +20°C° 0 mm 5 m/s 757 mmHg 55%
11:00 +21°C° 0 mm 5 m/s 756 mmHg 53%
12:00 +22°C° 0 mm 5 m/s 756 mmHg 52%
13:00 +23°C° 0 mm 6 m/s 755 mmHg 51%
14:00 +23°C° 0 mm 6 m/s 755 mmHg 53%
15:00 +24°C° 0 mm 6 m/s 754 mmHg 54%
16:00 +24°C° 0 mm 6 m/s 754 mmHg 56%
17:00 +23°C° 0.2 mm 6 m/s 753 mmHg 63%
18:00 +22°C° 0.2 mm 6 m/s 753 mmHg 70%
19:00 +21°C° 0.2 mm 5 m/s 753 mmHg 77%
20:00 +20°C° 0.1 mm 5 m/s 752 mmHg 82%
21:00 +19°C° 0.1 mm 5 m/s 752 mmHg 86%
22:00 +17°C° 0.1 mm 5 m/s 752 mmHg 91%
23:00 +17°C° 0.1 mm 5 m/s 751 mmHg 91%

20 Junho, Domingo

Tempo Temperatura Precipitação Vento Pressão Humidade
00:00 +17°C° 0.1 mm 5 m/s 751 mmHg 92%
01:00 +17°C° 0.1 mm 5 m/s 751 mmHg 92%
02:00 +17°C° 0 mm 5 m/s 751 mmHg 93%
03:00 +17°C° 0 mm 5 m/s 751 mmHg 93%
04:00 +16°C° 0 mm 5 m/s 751 mmHg 94%
05:00 +17°C° 0 mm 5 m/s 751 mmHg 92%
06:00 +17°C° 0 mm 5 m/s 751 mmHg 90%
07:00 +19°C° 0 mm 5 m/s 752 mmHg 89%
08:00 +20°C° 0 mm 5 m/s 752 mmHg 79%
09:00 +21°C° 0 mm 6 m/s 752 mmHg 70%
10:00 +22°C° 0 mm 7 m/s 752 mmHg 60%
11:00 +22°C° 0 mm 7 m/s 753 mmHg 55%
12:00 +22°C° 0 mm 7 m/s 753 mmHg 50%
13:00 +22°C° 0 mm 7 m/s 753 mmHg 44%
14:00 +21°C° 0 mm 7 m/s 754 mmHg 45%
15:00 +21°C° 0 mm 7 m/s 754 mmHg 45%
16:00 +21°C° 0 mm 7 m/s 754 mmHg 46%
17:00 +20°C° 0 mm 6 m/s 754 mmHg 51%
18:00 +19°C° 0 mm 5 m/s 754 mmHg 56%
19:00 +19°C° 0 mm 4 m/s 754 mmHg 60%
20:00 +17°C° 0 mm 3 m/s 754 mmHg 63%
21:00 +16°C° 0 mm 3 m/s 755 mmHg 66%
22:00 +14°C° 0 mm 2 m/s 755 mmHg 69%
23:00 +13°C° 0 mm 2 m/s 755 mmHg 70%
Mostrar mais